Flag for U.S.A. Weather past 2 weeks in Provo, Utah, U.S.A.

Now
55 °F

Clear.


Feels Like: 55 °F
Forecast: 50 / 77 °F
Wind: No wind

Location: Provo Municipal

Current Time: Sep 1, 2014 at 1:43:04 AM

Latest Report: Sep 1, 2014 at 1:15 AM


Visibility: 10 mi

Pressure: 30.04 "Hg

Humidity: 59%

Dew point: 41 °F

Location of ProvoLocation

Historic Weather in Provo — Graph

°F

Provo temperature yesterday

Maximum temperature yesterday: 75 °F (at 1:35 AM)
Minimum temperature yesterday: 57 °F (at 11:35 PM)
Average temperature yesterday: 68 °F

Past Weeks' High & Low Weather Summary

 TemperatureHumidityPressure
High95 °F (Aug 17, 5:49 PM)94% (Aug 20, 5:15 AM)30.29 "Hg (Aug 20, 5:15 AM)
Low52 °F (Aug 23, 5:35 AM)11% (Aug 17, 4:48 PM)29.83 "Hg (Aug 31, 2:35 AM)
Average66 °F58%30.06 "Hg
* Reported Aug 17 12:35 AM — Sep 1 12:35 AM, Provo, Weather by CustomWeather, © 2014

Note: Actual official high and low records may vary slightly from our data, if they occured in-between our weather recording intervals... More about our weather records

Advertising

Provo weather history for previous 24 hours

 ConditionsComfort  
Time TempWeatherWind HumidityBarometerVisibility
12:35 AM
Sep 1
55 °FClear.3 mph67%30.03 "Hg10 mi
12:15 AM57 °FClear.5 mph63%30.03 "Hg10 mi
11:55 PM
Aug 31
57 °FClear.8 mph63%30.03 "Hg10 mi
11:35 PM57 °FClear.6 mph67%30.03 "Hg10 mi
11:15 PM59 °FClear.7 mph63%30.02 "Hg10 mi
10:55 PM61 °FClear.9 mph55%30.02 "Hg10 mi
10:35 PM63 °FClear.3 mph52%30.02 "Hg10 mi
10:15 PM61 °FClear.7 mph52%30.02 "Hg10 mi
9:55 PM63 °FClear.6 mph52%30.02 "Hg10 mi
9:35 PM66 °FClear.8 mph46%30.02 "Hg10 mi
8:47 PM66 °FSunny.7 mph32%30.01 "Hg15 mi
7:52 PM70 °FSunny.7 mph43%30.01 "Hg15 mi
6:47 PM73 °FSunny.9 mph38%30.01 "Hg15 mi
5:50 PM75 °FPassing clouds.9 mph31%30.01 "Hg15 mi
4:50 PM75 °FPassing clouds.9 mph31%30.02 "Hg15 mi
3:50 PM75 °FPassing clouds.6 mph31%30.02 "Hg15 mi
2:47 PM73 °FPassing clouds.6 mph33%30.04 "Hg15 mi
1:55 PM73 °FPassing clouds.6 mph33%30.05 "Hg15 mi
12:59 PM72 °FPassing clouds.7 mph38%30.05 "Hg15 mi
11:56 AM70 °FPassing clouds.9 mph40%30.07 "Hg15 mi
10:47 AM70 °FScattered clouds.13 mph40%30.06 "Hg15 mi
8:59 AM64 °FScattered clouds.10 mph52%30.03 "Hg15 mi
7:59 AM63 °FScattered clouds.No wind52%30.01 "Hg15 mi
6:52 AM63 °FPassing clouds.7 mph52%29.97 "Hg15 mi
6:35 AM63 °FClear.10 mph52%29.96 "Hg10 mi
6:15 AM64 °FClear.17 mph49%29.95 "Hg10 mi
5:55 AM64 °FClear.20 mph49%29.94 "Hg9 mi
5:35 AM64 °FClear.21 mph49%29.93 "Hg8 mi
5:15 AM66 °FClear.21 mph46%29.92 "Hg10 mi
4:55 AM66 °FClear.21 mph46%29.90 "Hg10 mi
4:35 AM68 °FClear.25 mph40%29.88 "Hg10 mi
4:15 AM70 °FClear.25 mph43%29.88 "Hg10 mi
3:55 AM70 °FClear.17 mph46%29.86 "Hg10 mi
3:35 AM70 °FClear.21 mph50%29.85 "Hg10 mi
3:15 AM66 °FClear.8 mph64%29.84 "Hg10 mi
2:55 AM70 °FClear.6 mph40%29.83 "Hg10 mi
2:35 AM68 °FPassing clouds.10 mph53%29.83 "Hg10 mi
2:15 AM70 °FPassing clouds.13 mph46%29.84 "Hg10 mi
1:55 AM72 °FPassing clouds.12 mph38%29.86 "Hg10 mi
1:35 AM75 °FClear.3 mph27%29.85 "Hg10 mi
1:15 AM73 °FPassing clouds.No wind33%29.85 "Hg10 mi
Weather by CustomWeather, © 2014

See weather overviewHow to use our weather pages